Terminal Aerodrome Forecast
Issued by NWS Cheyenne, WY

Home | Current Version | Previous Version | Text Only | Print | Product List | Glossary On
Versions: 1 2 3 4 5 6 7 8 9 10 11 12 13 14
000
FTUS45 KCYS 212320
TAFCYS
TAF
KCYS 212320Z 2200/2224 05010G18KT P6SM FEW200
     FM220100 16006KT P6SM BKN200
     FM221100 16005KT 3SM BR SCT005
     FM221600 18010KT P6SM SCT050=

USA.gov is the U.S. government's official web portal to all federal, state and local government web resources and services.